Flag for Switzerland Weather past 2 weeks in Kreuzlingen, Thurgau, Switzerland

Now
89 °F

Sunny.


Feels Like: 90 °F
Forecast: 62 / 94 °F
Wind: 2 mph from East

Location: Konstanz

Current Time: Jul 3, 2015 at 2:43:09 PM

Latest Report: Jul 3, 2015 at 2:00 PM


Visibility: 14 mi

Pressure: 30.17 "Hg

Humidity: 46%

Dew point: 65 °F

Location of KreuzlingenLocation

Historic Weather in Kreuzlingen — Graph

°F

Kreuzlingen temperature yesterday

Maximum temperature yesterday: 94 °F (at 5:00 PM)
Minimum temperature yesterday: 66 °F (at 6:00 AM)
Average temperature yesterday: 80 °F

Past Weeks' High & Low Weather Summary

 TemperatureHumidityPressure
High94 °F (Jul 2, 5:00 PM)97% (Jun 18, 11:00 PM)30.23 "Hg (Jun 18, 11:00 PM)
Low49 °F (Jun 24, 5:00 AM)21% (Jun 26, 4:00 PM)29.72 "Hg (Jun 22, 10:00 PM)
Average66 °F66%30.09 "Hg
* Reported Jun 18 1:00 PM — Jul 3 1:00 PM, Kreuzlingen, Weather by CustomWeather, © 2015

Note: Actual official high and low records may vary slightly from our data, if they occured in-between our weather recording intervals... More about our weather records

Advertising

Kreuzlingen weather history for previous 24 hours

 ConditionsComfort  
Time TempWeatherWind HumidityBarometerVisibility
1:00 PM
Fri, Jul 3
87 °FPassing clouds.2 mph49%30.17 "Hg19 mi
12:00 PM84 °FPassing clouds.2 mph57%30.19 "Hg19 mi
11:00 AM82 °FScattered clouds.2 mph60%30.21 "Hg16 mi
10:00 AM80 °FScattered clouds.2 mph67%30.21 "Hg19 mi
9:00 AM78 °FPassing clouds.1 mph65%30.21 "Hg22 mi
8:00 AM73 °FScattered clouds.1 mph76%30.22 "Hg19 mi
7:00 AM71 °FPassing clouds.1 mph83%30.21 "Hg19 mi
6:00 AM70 °FScattered clouds.1 mph85%30.20 "Hg19 mi
5:00 AM70 °FClear.1 mph86%30.19 "Hg19 mi
4:00 AM71 °FClear.2 mph83%30.18 "Hg22 mi
3:00 AM72 °FClear.1 mph80%30.18 "Hg22 mi
2:00 AM73 °FClear.2 mph74%30.17 "Hg19 mi
1:00 AM74 °FClear.1 mph72%30.16 "Hg25 mi
12:00 AM76 °FClear.1 mph68%30.15 "Hg22 mi
11:00 PM
Thu, Jul 2
78 °FClear.1 mph67%30.13 "Hg25 mi
10:00 PM81 °FClear.2 mph52%30.11 "Hg28 mi
9:00 PM85 °FPassing clouds.1 mph51%30.07 "Hg28 mi
8:00 PM92 °FScattered clouds.1 mph31%30.05 "Hg28 mi
7:00 PM93 °FPassing clouds.2 mph29%30.04 "Hg25 mi
6:00 PM93 °FPassing clouds.2 mph28%30.04 "Hg28 mi
5:00 PM94 °FPassing clouds.1 mph26%30.05 "Hg28 mi
4:00 PM93 °FPassing clouds.2 mph27%30.06 "Hg28 mi
3:00 PM92 °FPassing clouds.2 mph32%30.06 "Hg25 mi
2:00 PM90 °FPassing clouds.1 mph31%30.06 "Hg22 mi
Weather by CustomWeather, © 2015

See weather overviewHow to use our weather pages